Flag for Russia Weather past 2 weeks in Yakutsk, Russia

Now
45 °F

Scattered clouds.


Feels Like: 41 °F
Forecast: 43 / 53 °F
Wind: 6 mph from Southwest

Location: Jakutsk

Current Time: May 28, 2015 at 5:48:39 AM

Latest Report: May 28, 2015 at 5:00 AM


Visibility: N/A

Pressure: 29.53 "Hg

Humidity: 76%

Dew point: 37 °F

Location of YakutskLocation

Historic Weather in Yakutsk — Graph

°F

Yakutsk temperature yesterday

Maximum temperature yesterday: 59 °F (at 3:00 PM)
Minimum temperature yesterday: 41 °F (at 3:30 AM)
Average temperature yesterday: 51 °F

Past Weeks' High & Low Weather Summary

 TemperatureHumidityPressure
High68 °F (May 26, 12:00 PM)100% (May 21, 1:30 AM)29.98 "Hg (May 21, 1:30 AM)
Low25 °F (May 13, 7:30 PM)19% (May 18, 7:30 PM)29.24 "Hg (May 13, 4:00 AM)
Average45 °F53%29.64 "Hg
* Reported May 13 4:00 AM — May 28 4:30 AM, Yakutsk, Weather by CustomWeather, © 2015

Note: Actual official high and low records may vary slightly from our data, if they occured in-between our weather recording intervals... More about our weather records

Advertising

Yakutsk weather history for previous 24 hours

 ConditionsComfort  
Time TempWeatherWind HumidityBarometerVisibility
4:30 AM
Thu, May 28
43 °FScattered clouds.6 mph76%29.53 "HgN/A
4:00 AM43 °FScattered clouds.8 mph81%29.50 "HgN/A
3:30 AM43 °FScattered clouds.8 mph81%29.50 "HgN/A
3:00 AM43 °FScattered clouds.8 mph87%29.50 "HgN/A
2:30 AM45 °FPassing clouds.10 mph81%29.50 "HgN/A
2:00 AM46 °FPassing clouds.6 mph82%29.50 "HgN/A
1:30 AM46 °FPassing clouds.1 mph76%29.50 "HgN/A
1:00 AM46 °FPassing clouds.3 mph76%29.50 "HgN/A
12:30 AM48 °FPassing clouds.1 mph71%29.47 "HgN/A
12:00 AM48 °FPassing clouds.No wind71%29.47 "HgN/A
11:30 PM
Wed, May 27
50 °FPassing clouds.1 mph67%29.50 "HgN/A
11:00 PM50 °FSprinkles. Passing clouds.6 mph62%29.50 "HgN/A
10:30 PM52 °FPassing clouds.13 mph58%29.50 "HgN/A
10:00 PM54 °FPassing clouds.13 mph47%29.50 "HgN/A
9:30 PM55 °FScattered clouds.1 mph36%29.47 "HgN/A
9:00 PM55 °FScattered clouds.1 mph38%29.50 "HgN/A
8:30 PM54 °FScattered clouds.1 mph44%29.47 "HgN/A
8:00 PM55 °FPartly sunny.3 mph41%29.47 "HgN/A
7:30 PM57 °FPartly sunny.6 mph31%29.47 "HgN/A
7:00 PM57 °FScattered clouds.6 mph31%29.47 "HgN/A
6:30 PM59 °FScattered clouds.3 mph27%29.47 "HgN/A
6:00 PM59 °FSunny.3 mph25%29.47 "Hg10 mi
5:30 PM59 °FSunny.6 mph25%29.47 "Hg10 mi
5:00 PM59 °FSunny.6 mph25%29.47 "Hg10 mi
4:30 PM59 °FSunny.6 mph25%29.47 "Hg10 mi
4:00 PM59 °FSunny.6 mph25%29.47 "Hg10 mi
3:30 PM59 °FScattered clouds.8 mph27%29.47 "HgN/A
3:00 PM59 °FScattered clouds.6 mph29%29.50 "HgN/A
2:30 PM57 °FScattered clouds.8 mph29%29.50 "HgN/A
2:00 PM57 °FScattered clouds.8 mph29%29.50 "HgN/A
1:30 PM57 °FScattered clouds.8 mph33%29.50 "HgN/A
1:00 PM55 °FScattered clouds.6 mph36%29.50 "HgN/A
12:30 PM55 °FScattered clouds.3 mph33%29.50 "HgN/A
12:00 PM55 °FScattered clouds.6 mph33%29.50 "HgN/A
11:30 AM54 °FSunny.6 mph35%29.53 "Hg10 mi
11:00 AM54 °FSunny.8 mph35%29.53 "Hg10 mi
10:30 AM54 °FSunny.3 mph35%29.53 "Hg10 mi
10:00 AM54 °FSunny.6 mph38%29.53 "Hg10 mi
9:30 AM52 °FSunny.6 mph47%29.53 "Hg10 mi
9:00 AM52 °FPassing clouds.6 mph54%29.53 "HgN/A
8:30 AM50 °FSunny.6 mph54%29.56 "Hg10 mi
8:00 AM50 °FSunny.3 mph54%29.56 "Hg10 mi
7:30 AM48 °FSunny.3 mph58%29.56 "Hg10 mi
7:00 AM46 °FSunny.6 mph62%29.56 "Hg10 mi
6:30 AM45 °FSunny.6 mph71%29.53 "Hg10 mi
6:00 AM43 °FSunny.6 mph76%29.53 "Hg10 mi
5:30 AM43 °FSunny.6 mph76%29.53 "Hg10 mi
5:00 AM41 °FSunny.8 mph81%29.53 "Hg10 mi
Weather by CustomWeather, © 2015

See weather overviewHow to use our weather pages